Wind_Speed
23 24 23 23 23 23 23 24 27 29 32 34 33 30 27 30 33 38 38 38 37 36 37 36 36 34 33 33 32 32 33 31 31 36 36 36 37 39 39 42 49 53 59 55 57
21 23 24 23 24 24 23 24 24 25 28 31 34 33 29 28 28 33 40 38 38 37 38 39 37 35 35 35 35 34 34 34 37 37 39 38 38 39 40 44 51 57 59 61 59
24 22 23 26 25 24 23 22 22 23 24 29 30 32 30 28 28 29 33 38 40 39 39 39 37 36 37 37 36 36 33 35 36 38 39 40 39 39 40 44 50 59 63 66 67
26 23 25 24 26 24 22 22 21 20 21 22 25 30 29 29 29 30 30 32 38 37 38 37 36 37 38 38 37 33 34 34 36 39 41 42 40 41 42 42 49 59 68 68 69
28 26 26 28 29 27 25 23 21 21 21 22 21 23 26 27 31 25 27 27 33 36 37 36 36 38 38 36 34 30 34 33 37 40 42 42 42 43 44 45 46 57 70 64 72
27 30 27 27 28 27 27 27 24 21 20 20 19 20 24 27 25 24 27 28 30 33 35 36 38 39 37 35 30 35 33 33 36 39 40 41 40 40 33 32 44 65 75 67 70
29 30 28 26 28 29 27 26 26 24 21 20 19 19 23 28 23 24 26 28 29 32 34 37 39 37 34 33 32 34 30 31 35 36 35 37 27 23 23 24 48 70 72 51 64
34 33 31 28 27 27 29 27 27 27 28 26 25 21 23 21 23 26 28 30 32 32 35 36 36 35 33 34 32 31 28 32 38 32 34 30 12 18 16 21 49 66 49 46 48
32 32 31 31 31 29 28 29 29 31 31 30 28 25 22 22 25 26 25 27 29 31 34 34 33 33 32 32 29 27 29 35 35 30 27 20 9 13 20 20 40 40 33 39 33
33 32 32 32 33 32 29 29 30 29 28 28 26 25 24 22 23 26 29 29 28 30 32 31 31 30 29 27 26 32 32 34 33 26 25 18 11 9 16 28 28 42 36 32 31
33 33 34 35 35 35 33 30 30 30 29 26 25 24 21 22 23 24 26 26 27 29 31 31 27 23 23 30 31 34 33 33 30 27 24 18 14 14 17 20 30 37 29 30 31
35 33 34 35 36 36 35 33 32 31 29 24 25 24 21 23 23 24 25 24 23 22 27 28 21 21 30 33 31 34 32 29 31 27 28 22 16 17 18 16 28 36 31 26 29
36 35 36 40 37 37 34 32 33 30 28 26 25 24 22 22 23 24 25 25 25 25 26 26 27 34 38 36 32 31 31 26 29 32 32 25 21 20 23 20 29 35 34 27 26
40 40 35 41 39 39 40 33 32 32 28 26 23 23 22 20 21 21 24 25 26 25 29 28 30 26 27 29 29 31 27 28 32 32 32 31 27 25 27 27 30 30 30 30 21
42 41 38 40 41 39 37 36 33 31 28 25 22 20 19 18 19 21 22 22 24 26 28 22 30 30 30 26 32 28 29 31 32 31 30 34 34 30 32 30 30 30 30 27 27
41 42 41 42 43 39 36 32 32 31 26 26 23 22 20 19 20 20 21 23 23 23 24 27 28 27 24 27 30 31 29 31 31 31 32 29 35 38 34 30 32 30 33 32 32
44 42 41 45 44 39 38 34 33 29 28 24 24 24 21 22 21 18 18 18 17 20 20 25 25 23 25 27 29 31 29 30 32 34 31 29 30 29 33 35 37 38 34 33 32
47 44 44 43 43 40 38 37 34 29 28 25 27 25 23 22 19 19 17 17 14 13 18 20 20 22 25 28 31 32 33 33 34 35 32 32 34 27 27 30 29 30 32 36 36
48 50 44 42 43 42 41 40 31 27 32 27 28 25 25 24 20 16 17 17 18 15 13 17 19 16 19 23 29 29 32 32 35 35 35 35 33 33 32 28 30 28 30 29 32
49 48 45 42 43 43 43 37 31 30 31 30 29 27 26 27 24 24 21 22 23 20 18 16 16 16 17 20 23 29 33 38 40 39 40 33 29 31 33 33 30 32 32 33 34
50 48 45 42 43 45 42 36 31 32 30 31 29 28 28 30 29 28 27 24 22 18 18 16 19 18 16 20 24 29 32 32 32 36 40 35 35 33 32 31 30 31 30 32 33
50 49 45 43 44 43 38 34 34 32 33 32 30 29 30 29 37 25 30 25 23 22 22 21 21 18 17 21 23 26 28 27 30 34 35 35 33 31 31 29 30 31 33 32 34
51 45 43 43 42 38 36 36 36 33 33 34 30 29 30 33 33 34 31 23 21 24 27 23 25 23 22 22 23 24 25 28 30 32 33 37 33 27 26 30 34 39 37 36 36
47 42 41 39 39 37 36 35 35 33 34 34 36 28 27 30 37 32 25 23 22 24 25 24 26 23 23 26 25 27 28 31 31 30 30 35 31 31 32 36 39 41 42 39 35
39 36 35 35 35 37 36 35 34 34 32 33 28 26 26 25 23 20 25 25 24 25 25 26 25 23 24 27 29 30 31 33 33 32 32 28 35 36 36 37 40 42 40 35 33
35 31 29 30 33 35 33 34 33 33 32 34 33 34 28 24 25 23 26 25 25 25 25 24 23 23 24 28 31 34 31 30 33 34 33 31 33 29 31 34 36 37 36 35 37
28 27 27 29 32 32 33 34 32 31 31 36 37 34 30 25 22 22 23 23 24 22 23 24 23 24 24 27 32 34 24 28 30 34 35 33 28 32 32 33 34 34 37 37 35
Wind_Direction
331 319 312 306 300 301 299 297 295 288 282 276 268 264 261 257 255 250 247 245 244 243 244 245 246 246 247 250 252 253 254 260 262 257 255 252 249 250 244 243 240 243 250 245 243
333 322 315 311 305 309 312 309 309 304 291 279 268 264 263 262 257 253 246 244 244 242 242 241 242 244 246 246 248 252 254 257 257 258 256 254 251 249 251 249 245 243 246 251 244
340 325 318 317 313 314 314 312 304 306 301 290 275 262 260 261 259 255 252 243 240 238 240 240 240 242 244 245 247 248 255 258 260 262 262 261 259 256 253 252 247 242 240 244 248
344 327 319 319 315 311 313 310 308 304 304 298 284 264 258 258 263 256 254 249 243 242 240 240 241 242 243 244 247 253 257 260 265 265 264 264 263 263 262 259 245 242 237 237 243
344 344 329 320 317 315 311 311 305 298 297 299 294 275 259 256 258 261 255 248 243 242 242 241 241 243 245 247 251 256 255 260 261 263 264 265 268 266 264 259 243 239 238 228 239
344 343 339 324 315 316 313 308 308 305 304 297 295 280 263 259 263 258 252 244 241 240 240 242 241 243 247 250 252 253 255 260 264 266 268 268 267 268 276 273 243 229 231 227 226
330 333 332 326 318 315 311 306 303 303 304 306 297 287 267 262 270 257 248 242 240 239 240 241 243 246 248 251 251 255 259 260 261 266 269 265 274 288 275 262 232 224 228 229 220
323 325 326 321 316 312 308 304 300 298 299 298 298 290 275 273 253 255 251 246 238 236 237 241 245 247 246 248 249 254 256 254 255 257 262 275 329 297 280 267 233 225 237 242 232
319 318 318 318 315 310 305 302 300 299 296 298 296 280 271 269 259 257 256 252 250 242 239 239 241 244 244 248 250 253 250 246 254 258 267 288 321 294 276 249 239 235 242 242 262
316 313 312 311 310 309 305 301 298 298 299 299 294 279 270 265 260 260 257 250 242 243 245 243 243 245 245 246 248 243 241 245 248 255 265 287 305 270 254 259 240 243 243 257 255
309 307 306 306 306 306 304 299 297 294 295 299 295 285 269 261 258 254 256 252 249 249 250 247 243 243 241 240 238 244 245 249 252 251 260 268 278 283 244 264 244 248 253 250 250
308 303 307 306 302 302 302 300 295 294 292 293 291 281 271 260 254 253 253 250 250 249 243 242 242 231 232 238 240 245 248 249 252 248 257 254 264 267 266 248 242 251 251 264 247
306 300 303 306 299 297 297 296 293 289 286 285 286 278 272 264 255 248 249 251 248 241 242 239 230 226 232 236 240 246 248 247 251 245 257 258 261 253 268 224 232 251 257 261 254
301 300 302 295 299 296 296 297 292 290 286 282 284 277 267 261 255 249 245 244 246 240 239 238 238 238 236 236 241 245 253 247 250 247 251 257 259 246 252 250 241 252 251 251 236
297 292 294 296 292 292 295 295 292 288 286 281 280 274 262 253 253 253 251 250 244 240 239 233 240 241 239 238 243 246 248 249 248 251 252 251 258 256 251 257 255 253 257 243 244
292 292 291 291 289 288 287 288 287 284 282 278 277 270 261 255 253 257 245 243 244 245 241 238 245 242 240 238 243 247 244 248 253 254 256 260 259 260 261 256 259 256 250 252 254
290 293 293 290 287 287 285 285 280 279 281 276 270 265 258 260 259 250 235 233 234 234 229 236 246 243 235 234 240 248 251 251 251 257 263 269 270 266 262 260 257 255 259 263 268
291 291 291 287 286 281 278 277 275 279 274 271 264 259 255 251 247 250 240 231 231 232 234 238 243 247 246 238 236 242 246 250 255 256 259 266 266 271 263 263 268 263 259 264 270
293 294 289 283 280 276 272 270 276 265 267 268 262 253 251 251 258 248 236 227 227 231 238 237 239 238 242 239 244 248 247 253 255 256 257 260 264 271 262 260 263 266 266 270 270
291 290 289 279 273 269 268 270 267 261 261 262 257 254 246 249 260 259 242 236 236 231 233 242 238 242 243 245 250 249 248 250 249 253 261 263 261 266 261 260 263 263 264 263 278
290 290 285 274 268 264 264 264 259 255 254 256 254 249 240 249 257 248 262 254 234 231 239 240 234 231 246 251 250 254 257 256 257 256 256 258 260 263 268 262 257 260 260 271 278
287 284 278 269 263 261 258 255 251 246 248 249 248 247 247 251 246 253 252 255 250 239 236 238 246 247 237 242 255 259 261 258 257 261 258 260 257 258 266 253 256 255 269 279 293
282 275 268 262 259 257 251 247 248 245 246 246 245 244 244 248 252 249 249 250 250 245 246 244 247 251 247 253 259 264 264 260 257 256 255 254 258 267 262 258 259 265 276 282 288
271 265 261 257 255 250 243 242 243 241 245 243 236 233 241 247 247 230 241 243 242 246 251 247 247 247 252 259 262 265 267 264 261 258 256 254 255 252 251 254 261 268 276 280 276
271 267 262 255 250 248 242 240 238 242 238 241 237 240 234 240 237 237 243 242 242 243 244 244 244 242 248 257 265 269 267 268 267 264 256 254 252 249 253 256 260 264 268 271 270
274 266 260 253 250 247 246 239 237 239 238 235 243 253 242 236 232 231 243 247 244 246 248 251 250 250 253 260 263 266 266 267 268 266 261 255 252 258 255 255 259 262 264 267 273
271 259 251 247 242 242 239 234 233 236 243 236 237 246 257 237 232 239 238 243 248 245 246 247 251 251 257 263 264 263 271 266 263 268 268 258 251 252 257 258 261 264 268 272 277
Height
5805 5801 5798 5795 5792 5789 5787 5786 5784 5781 5779 5777 5777 5778 5778 5779 5781 5783 5784 5788 5790 5793 5796 5799 5802 5804 5805 5807 5808 5810 5813 5815 5816 5818 5822 5826 5830 5833 5837 5839 5836 5836 5832 5840 5845
5802 5798 5794 5791 5789 5786 5784 5781 5779 5775 5772 5770 5770 5771 5771 5772 5774 5775 5777 5779 5782 5786 5789 5793 5796 5797 5799 5800 5802 5804 5806 5808 5809 5812 5813 5818 5822 5827 5830 5829 5830 5827 5828 5826 5833
5798 5794 5791 5788 5785 5783 5779 5777 5775 5771 5767 5764 5763 5764 5765 5765 5766 5767 5770 5773 5775 5779 5782 5786 5788 5790 5791 5793 5796 5798 5801 5801 5803 5803 5805 5808 5812 5816 5820 5821 5818 5820 5818 5819 5818
5796 5792 5788 5784 5781 5778 5775 5773 5771 5768 5765 5761 5758 5757 5758 5760 5761 5759 5761 5764 5767 5771 5774 5777 5780 5782 5784 5786 5788 5792 5793 5794 5793 5794 5795 5798 5802 5805 5808 5810 5808 5806 5808 5805 5811
5794 5788 5785 5781 5778 5775 5772 5768 5766 5763 5761 5758 5755 5753 5753 5754 5752 5757 5755 5757 5760 5763 5766 5770 5773 5773 5775 5779 5783 5786 5786 5788 5787 5787 5787 5789 5791 5794 5796 5796 5795 5795 5792 5797 5798
5790 5785 5780 5777 5773 5771 5768 5765 5762 5759 5756 5753 5751 5750 5750 5748 5749 5751 5750 5750 5752 5755 5759 5762 5763 5765 5769 5773 5777 5777 5780 5780 5778 5778 5780 5781 5781 5782 5783 5783 5784 5783 5780 5783 5790
5786 5781 5776 5772 5769 5766 5763 5760 5757 5755 5752 5749 5747 5746 5745 5744 5745 5743 5743 5744 5745 5748 5751 5753 5756 5761 5764 5766 5768 5769 5773 5773 5771 5771 5772 5772 5774 5773 5772 5773 5773 5771 5769 5776 5782
5783 5778 5773 5767 5763 5760 5759 5755 5753 5750 5747 5744 5742 5741 5739 5739 5738 5737 5737 5738 5739 5740 5742 5745 5750 5754 5756 5759 5762 5764 5767 5765 5763 5766 5764 5763 5767 5762 5764 5765 5765 5767 5771 5771 5777
5777 5772 5768 5763 5758 5754 5751 5749 5746 5744 5740 5737 5735 5734 5733 5733 5732 5733 5734 5733 5734 5735 5735 5739 5743 5747 5750 5752 5755 5758 5758 5756 5756 5757 5755 5758 5761 5759 5757 5760 5762 5765 5768 5769 5772
5773 5767 5762 5757 5752 5748 5747 5743 5740 5737 5734 5731 5728 5728 5728 5727 5726 5726 5726 5728 5728 5728 5729 5733 5737 5740 5743 5746 5750 5747 5747 5748 5749 5750 5749 5752 5754 5756 5754 5754 5759 5761 5764 5766 5767
5765 5760 5754 5751 5746 5742 5740 5737 5734 5732 5727 5725 5723 5720 5719 5719 5719 5718 5719 5721 5721 5723 5724 5726 5731 5736 5737 5736 5738 5739 5741 5742 5745 5745 5745 5748 5749 5751 5752 5751 5754 5756 5759 5762 5762
5757 5752 5747 5742 5738 5734 5731 5728 5726 5723 5720 5718 5715 5713 5712 5711 5711 5712 5713 5716 5716 5717 5716 5719 5725 5728 5727 5728 5732 5732 5734 5738 5739 5740 5738 5742 5745 5746 5747 5747 5750 5751 5755 5758 5760
5749 5745 5741 5733 5730 5726 5721 5719 5716 5713 5712 5710 5708 5707 5706 5705 5705 5706 5706 5707 5710 5711 5712 5714 5718 5717 5719 5722 5725 5727 5729 5734 5735 5733 5733 5737 5742 5743 5744 5744 5746 5747 5751 5753 5754
5739 5733 5730 5723 5723 5716 5714 5711 5708 5706 5704 5704 5703 5701 5699 5698 5698 5700 5700 5703 5704 5706 5705 5708 5708 5711 5713 5715 5718 5720 5725 5727 5728 5729 5730 5731 5734 5738 5740 5741 5742 5744 5747 5749 5750
5727 5722 5720 5714 5711 5709 5707 5704 5701 5700 5698 5696 5695 5694 5694 5694 5693 5694 5695 5696 5697 5699 5701 5706 5703 5704 5707 5712 5711 5717 5719 5720 5723 5724 5725 5726 5728 5731 5734 5737 5737 5739 5741 5742 5742
5716 5713 5712 5706 5702 5700 5695 5694 5693 5694 5692 5690 5689 5688 5689 5689 5688 5688 5689 5690 5691 5693 5696 5697 5696 5699 5704 5706 5707 5710 5713 5715 5717 5718 5719 5723 5722 5722 5726 5730 5730 5731 5731 5734 5735
5707 5702 5700 5698 5692 5692 5689 5688 5687 5685 5685 5685 5684 5682 5683 5684 5683 5683 5683 5684 5686 5688 5691 5691 5692 5695 5697 5700 5702 5703 5707 5710 5711 5711 5714 5716 5715 5717 5718 5720 5721 5721 5724 5725 5727
5694 5690 5688 5686 5684 5681 5678 5677 5677 5679 5677 5679 5678 5677 5677 5678 5679 5678 5679 5680 5681 5683 5685 5686 5688 5689 5691 5694 5697 5698 5701 5704 5704 5706 5708 5708 5707 5711 5711 5712 5713 5715 5718 5719 5720
5680 5678 5675 5674 5671 5668 5667 5663 5667 5671 5668 5671 5671 5671 5672 5673 5675 5675 5676 5677 5677 5680 5682 5683 5684 5685 5686 5689 5691 5693 5695 5698 5697 5698 5700 5702 5703 5704 5705 5706 5708 5710 5712 5713 5714
5665 5661 5660 5657 5657 5654 5653 5657 5657 5658 5660 5660 5662 5663 5666 5667 5669 5670 5672 5673 5673 5675 5677 5680 5680 5681 5682 5684 5685 5685 5688 5689 5690 5691 5692 5694 5695 5697 5697 5700 5702 5703 5705 5707 5707
5650 5646 5646 5644 5641 5641 5640 5645 5648 5647 5650 5652 5653 5654 5658 5660 5661 5662 5663 5665 5667 5670 5672 5674 5676 5679 5678 5679 5679 5679 5679 5682 5684 5683 5684 5686 5689 5691 5691 5694 5694 5696 5698 5699 5701
5633 5629 5628 5627 5628 5628 5631 5634 5636 5638 5639 5642 5645 5647 5649 5651 5650 5651 5655 5657 5660 5663 5665 5667 5667 5669 5672 5671 5673 5673 5673 5675 5676 5678 5678 5678 5682 5684 5685 5687 5687 5688 5690 5692 5692
5612 5611 5608 5609 5611 5616 5620 5621 5623 5627 5630 5632 5636 5638 5641 5642 5643 5645 5648 5651 5652 5654 5657 5660 5660 5662 5664 5666 5666 5666 5667 5667 5668 5668 5669 5671 5675 5679 5679 5679 5679 5679 5683 5684 5684
5592 5593 5591 5594 5598 5601 5605 5610 5612 5617 5619 5621 5625 5628 5632 5632 5632 5635 5640 5644 5645 5646 5647 5650 5652 5656 5657 5657 5658 5659 5660 5660 5661 5662 5665 5664 5668 5670 5670 5671 5674 5674 5674 5675 5675
5577 5579 5580 5583 5587 5588 5593 5599 5603 5606 5610 5613 5616 5618 5621 5623 5625 5628 5632 5635 5637 5639 5640 5643 5645 5649 5651 5651 5651 5651 5652 5652 5652 5654 5655 5660 5657 5660 5664 5664 5665 5665 5665 5665 5664
5567 5568 5571 5574 5577 5580 5584 5589 5594 5597 5602 5606 5608 5611 5613 5615 5617 5621 5625 5627 5630 5633 5634 5636 5638 5640 5643 5643 5643 5643 5645 5646 5644 5645 5646 5649 5650 5654 5654 5656 5655 5655 5656 5655 5656
5557 5557 5560 5564 5567 5571 5575 5580 5586 5590 5594 5598 5601 5604 5606 5608 5611 5615 5618 5620 5623 5626 5627 5629 5631 5633 5635 5635 5633 5634 5640 5638 5638 5637 5637 5640 5646 5645 5646 5647 5646 5646 5646 5646 5646